Overview Statistics Trail Chart Weather Telemetry Raw packets
 

This is the latest recevied weather packets stored in our database for station/object W0CHP-13. If no packets are shown the sender has not sent any weather packets the latest 10 day(s).

<< 26 27 28 29 30 31 32 >>
Time Temp. Humidity Pressure Rain* Wind** Luminosity Snow
1788304816 28.33° C 57% 1010.6 hPa 0 mm - 12 W/m² -
1788304216 28.89° C 59% 1010.6 hPa 0 mm - 30 W/m² -
1788303615 28.89° C 61% 1011.3 hPa 0 mm - 42 W/m² -
1788303017 28.89° C 58% 1011.7 hPa 0 mm - 15 W/m² -
1788302418 29.44° C 59% 1012.3 hPa 0 mm - 18 W/m² -
1788301815 29.44° C 61% 1012.3 hPa 0 mm - 31 W/m² -
1788301218 29.44° C 62% 1011.6 hPa 0 mm - 76 W/m² -
1788300616 30° C 61% 1011.3 hPa 0 mm - 51 W/m² -
1788300018 30.56° C 57% 1010.6 hPa 0 mm - 110 W/m² -
1788299415 30.56° C 55% 1011.3 hPa 0 mm - 99 W/m² -
1788298818 31.11° C 55% 1011 hPa 0 mm - 104 W/m² -
1788298219 31.11° C 52% 1011 hPa 0 mm - 111 W/m² -
1788297617 31.11° C 52% 1010.6 hPa 0 mm - 116 W/m² -
1788297018 31.67° C 48% 1011 hPa 0 mm - 54 W/m² -
1788296417 32.22° C 48% 1011.3 hPa 0 mm - 80 W/m² -
1788295818 32.78° C 44% 1011.6 hPa 0 mm - 241 W/m² -
1788295216 33.33° C 45% 1011.6 hPa 0 mm - 231 W/m² -
1788294631 32.78° C 48% 1012 hPa 0 mm - 609 W/m² -
1788294016 31.11° C 53% 1011.9 hPa 0 mm - 384 W/m² -
1788293416 31.11° C 53% 1011.9 hPa 0 mm - 282 W/m² -
1788292816 31.11° C 51% 1011.7 hPa 0 mm - 236 W/m² -
1788292217 31.11° C 52% 1012.3 hPa 0 mm - 228 W/m² -
1788291615 30.56° C 54% 1012.3 hPa 0 mm - 245 W/m² -
1788291017 31.11° C 55% 1012 hPa 0 mm - 169 W/m² -
1788290418 31.11° C 54% 1012.3 hPa 0 mm - 217 W/m² -

* Rain latest hour (hover to see other rain measurements)
** Current wind speed in m/s (hover to see current wind gust speed)